Location: Bergfeld
(52.0500°N, 11.7833°E)
Time: 18:14:29
(UTC+00:00)

USA 229 - Pass Details

Date: 17 February 2020
Orbit: 986 x 1226 km, 63.4° (Epoch: 26 March)

Event Time Altitude Azimuth Distance (km) Brightness Sun altitude
Exits shadow 03:35:51 43° 207° (SSW) 1,617 4.3 -26.5°
Drops below altitude 10° 03:41:33 10° 167° (SSE) 3,144 6.1 -25.7°
Sets 03:44:26 0° 162° (SSE) 4,122 6.8 -25.2°
